TimeEDT,TemperatureF,Dew PointF,Humidity,Sea Level PressureIn,VisibilityMPH,Wind Direction,Wind SpeedMPH,Gust SpeedMPH,PrecipitationIn,Events,Conditions,WindDirDegrees,DateUTC
12:56 AM,70.0,68.9,96,30.02,9.0,Calm,Calm,-,N/A,,Mostly Cloudy,0,2013-07-08 04:56:00
1:56 AM,70.9,66.9,87,30.02,10.0,West,5.8,-,N/A,,Partly Cloudy,270,2013-07-08 05:56:00
2:56 AM,70.0,63.0,78,30.02,10.0,West,5.8,-,N/A,,Partly Cloudy,280,2013-07-08 06:56:00
3:56 AM,70.0,63.0,78,30.01,10.0,West,8.1,-,N/A,,Overcast,270,2013-07-08 07:56:00
4:56 AM,70.0,61.9,75,30.02,10.0,West,5.8,-,N/A,,Overcast,260,2013-07-08 08:56:00
5:56 AM,70.0,63.0,78,30.02,10.0,SW,5.8,-,N/A,,Overcast,230,2013-07-08 09:56:00
6:10 AM,69.8,62.6,78,30.05,10.0,SW,5.8,-,N/A,,Overcast,230,2013-07-08 10:10:00
6:56 AM,70.0,63.9,81,30.04,10.0,WSW,4.6,-,N/A,,Overcast,250,2013-07-08 10:56:00
7:56 AM,70.9,63.9,78,30.05,10.0,West,3.5,-,N/A,,Overcast,280,2013-07-08 11:56:00
8:56 AM,72.9,64.9,76,30.06,7.0,West,4.6,-,N/A,,Mostly Cloudy,270,2013-07-08 12:56:00
9:56 AM,73.9,65.8,76,30.06,7.0,West,6.9,-,N/A,,Mostly Cloudy,280,2013-07-08 13:56:00
10:56 AM,77.0,65.8,68,30.06,10.0,WNW,3.5,-,N/A,,Mostly Cloudy,300,2013-07-08 14:56:00
11:56 AM,77.9,66.9,69,30.07,10.0,West,4.6,-,N/A,,Mostly Cloudy,270,2013-07-08 15:56:00
12:56 PM,79.9,65.8,62,30.05,10.0,Calm,Calm,-,N/A,,Mostly Cloudy,0,2013-07-08 16:56:00
1:56 PM,81.9,63.9,54,30.04,10.0,Variable,3.5,-,N/A,,Mostly Cloudy,0,2013-07-08 17:56:00
2:56 PM,81.0,68.0,65,30.03,10.0,North,5.8,-,N/A,,Mostly Cloudy,360,2013-07-08 18:56:00
3:56 PM,79.9,66.9,64,30.03,10.0,North,6.9,-,N/A,,Mostly Cloudy,10,2013-07-08 19:56:00
4:56 PM,79.9,68.0,67,30.03,10.0,WNW,10.4,-,N/A,,Mostly Cloudy,300,2013-07-08 20:56:00
5:56 PM,75.9,70.9,84,30.03,5.0,SW,8.1,-,0.13,Rain,Rain Showers,220,2013-07-08 21:56:00
6:08 PM,73.4,71.6,94,30.05,4.0,SSW,5.8,-,0.12,Rain-Thunderstorm,Thunderstorms and Rain,200,2013-07-08 22:08:00
6:30 PM,73.4,69.8,88,30.06,10.0,East,6.9,-,0.12,,Mostly Cloudy,100,2013-07-08 22:30:00
6:56 PM,73.9,68.9,84,30.04,10.0,SSE,5.8,-,0.12,,Mostly Cloudy,150,2013-07-08 22:56:00
7:56 PM,73.9,70.9,90,30.05,10.0,Calm,Calm,-,N/A,,Scattered Clouds,0,2013-07-08 23:56:00
8:56 PM,70.0,68.9,96,30.07,10.0,Calm,Calm,-,N/A,Fog,Patches of Fog,0,2013-07-09 00:56:00
9:56 PM,68.9,68.0,97,30.09,3.0,Calm,Calm,-,N/A,Fog,Patches of Fog,0,2013-07-09 01:56:00
10:06 PM,69.8,68.0,94,30.10,2.5,Calm,Calm,-,N/A,,Clear,0,2013-07-09 02:06:00
10:15 PM,68.0,68.0,100,30.10,4.0,Calm,Calm,-,N/A,,Clear,0,2013-07-09 02:15:00
10:26 PM,68.0,66.2,94,30.10,2.5,Calm,Calm,-,N/A,,Clear,0,2013-07-09 02:26:00
10:34 PM,68.0,66.2,94,30.10,5.0,NNW,3.5,-,N/A,,Clear,330,2013-07-09 02:34:00
10:56 PM,68.0,66.9,96,30.09,4.0,Calm,Calm,-,N/A,,Partly Cloudy,0,2013-07-09 02:56:00
11:48 PM,68.0,66.2,94,30.10,2.5,East,3.5,-,N/A,,Clear,80,2013-07-09 03:48:00
11:56 PM,68.0,66.9,96,30.08,3.0,ESE,3.5,-,N/A,,Clear,110,2013-07-09 03:56:00